Notices

What's New in latest Release from April 7th, 2021:

- Updated Glossary, including Speed of Maximum Gust, and Total Hourly Precipitation

- Updated national and regional climate services offices contacts and prices information

- Addition of station inventory lists for 1981-2010, 1971-2000, and 1961-1990 Normals.

If you haven't already, please take our survey and provide feedback about our website: https://eccc.sondage-survey.ca/f/LanguageSelection.aspx?s=442ca660-fcf1-47c0-95a9-59707d6fd709

Hourly Data Report for March 04, 2006

TORONTO CITY
ONTARIO

43°40'00.000" N
79°24'00.000" W
112.50 m
6158355
71508
XTO

Download Data

Hourly Data (March 2006)
Hourly Data Report for March 4, 2006
TIME
LST
Temp Definition
°C
Dew Point Definition
°C
Rel Hum Definition
%
Precip. Amount Definition
mm

Wind Dir Definition
10's deg

Wind Spd Definition
km/h
Visibility Definition
km
Stn Press Definition
kPa
Hmdx Definition


Wind Chill Definition


Weather Definition


00:00 -4.0 -9.7 64   LegendMM LegendMM   100.73     LegendNANA
01:00 -4.3 -10.5 62   LegendMM LegendMM   100.74     LegendNANA
02:00 -4.8 -11.4 60   LegendMM LegendMM   100.76     LegendNANA
03:00 -5.0 -10.7 64   LegendMM LegendMM   100.71     LegendNANA
04:00 -4.9 -10.0 67   LegendMM LegendMM   100.70     LegendNANA
05:00 -4.7 -9.5 69   LegendMM LegendMM   100.76     LegendNANA
06:00 -4.5 -8.7 72   LegendMM LegendMM   100.79     LegendNANA
07:00 -3.8 -7.9 73   LegendMM LegendMM   100.77     LegendNANA
08:00 -3.6 -7.7 73   LegendMM LegendMM   100.81     LegendNANA
09:00 -3.3 -8.5 67   LegendMM LegendMM   100.85     LegendNANA
10:00 -2.5 -7.8 67   LegendMM LegendMM   100.82     LegendNANA
11:00 -1.5 -9.1 56   LegendMM LegendMM   100.78     LegendNANA
12:00 0.2 -8.9 50   LegendMM LegendMM   100.76     LegendNANA
13:00 0.7 -10.0 45   LegendMM LegendMM   100.75     LegendNANA
14:00 2.0 -10.0 41   LegendMM LegendMM   100.71     LegendNANA
15:00 2.4 -9.7 40   LegendMM LegendMM   100.71     LegendNANA
16:00 3.1 -9.1 40   LegendMM LegendMM   100.77     LegendNANA
17:00 2.0 -10.1 40   LegendMM LegendMM   100.82     LegendNANA
18:00 1.5 -12.4 35   LegendMM LegendMM   100.88     LegendNANA
19:00 0.9 -11.5 39   LegendMM LegendMM   100.92     LegendNANA
20:00 0.1 -7.4 57   LegendMM LegendMM   100.95     LegendNANA
21:00 -0.5 -7.6 59   LegendMM LegendMM   100.95     LegendNANA
22:00 -0.9 -7.3 62   LegendMM LegendMM   100.98     LegendNANA
23:00 -1.2 -6.6 67   LegendMM LegendMM   100.96     LegendNANA

Notes on Data Quality.

Legend

  • E = Estimated
  • M = Missing
  • NA = Not Available*
  • [empty] = Indicates an unobserved value
Date modified: